GFSNIL_sfc_wetblb_132.txt.gz
Wetbulb
60.84 62.04 62.76 62.56 62.20 61.32 61.24 61.55 62.21 61.94 62.10 61.63 61.16 60.83 60.43 60.06 59.69 59.43 58.77 57.88 57.76 57.85
59.40 60.38 61.32 62.34 62.64 62.25 61.81 61.98 61.43 61.24 61.09 61.13 60.90 60.64 60.69 60.53 60.18 60.07 59.43 59.03 58.18 57.74
55.83 58.56 60.36 61.14 61.10 61.47 61.61 61.39 60.43 60.40 60.68 60.64 60.59 60.48 60.20 60.47 60.31 59.71 59.58 59.39 58.86 58.42
54.35 56.47 57.50 59.10 60.00 60.46 60.67 60.28 60.40 60.52 60.54 60.17 59.91 60.01 59.51 59.78 59.88 58.83 58.81 58.87 58.32 57.96
52.20 54.53 56.43 56.96 57.56 58.37 59.14 59.86 60.14 60.48 60.61 60.47 60.13 60.03 59.33 59.16 58.92 58.31 57.57 57.69 57.45 56.96
53.30 53.56 54.44 56.03 56.88 57.36 57.55 58.05 58.91 60.13 59.66 59.75 59.37 59.26 59.04 58.99 58.33 57.76 57.37 56.98 56.51 56.32
52.74 54.55 55.10 55.89 56.49 57.76 57.72 57.69 58.07 58.66 58.88 58.74 58.81 58.89 58.77 58.47 57.92 57.44 56.84 56.53 56.22 55.89
46.07 51.94 51.48 50.62 52.16 51.80 51.46 52.68 52.97 54.66 55.78 56.71 56.66 56.39 56.96 56.98 56.61 56.04 55.61 53.44 53.87 52.93
43.88 43.64 44.63 46.08 44.85 45.62 45.69 46.41 45.91 45.83 45.89 47.41 47.26 41.88 42.84 45.45 51.81 51.07 50.31 49.84 45.34 41.53
41.00 40.40 40.66 40.35 40.21 40.37 42.34 42.23 41.45 41.89 42.28 41.87 41.46 41.64 41.49 40.99 46.34 46.63 45.92 43.90 40.27 37.45
36.90 36.01 36.07 36.61 38.84 38.94 39.17 38.99 38.77 38.83 39.48 39.09 38.20 40.61 40.59 40.25 41.96 40.28 39.74 39.01 37.78 37.17
35.18 35.10 36.48 36.24 37.87 38.25 37.31 36.44 36.27 35.36 34.11 34.05 35.08 39.11 39.53 38.01 35.54 34.73 33.98 34.41 35.70 36.00
34.78 35.32 36.21 37.10 35.99 33.98 33.37 32.56 32.36 32.36 32.55 32.44 33.27 37.62 38.42 36.52 33.84 33.13 32.56 32.64 33.20 34.28
34.32 34.71 35.84 35.14 32.99 32.79 32.74 32.46 32.31 32.30 32.02 32.63 32.98 34.88 37.31 37.86 33.48 33.43 32.55 32.00 31.79 32.77

GFSNIL_sfc_wetblb_138.txt.gz
Wetbulb
49.48 53.10 55.80 58.04 59.97 61.70 61.95 62.13 62.54 62.16 61.80 61.57 61.21 60.71 60.15 59.58 59.16 59.07 58.71 58.06 58.05 57.69
48.02 48.75 50.48 53.24 56.13 59.02 61.98 62.33 62.17 61.68 61.36 61.49 61.28 60.92 60.46 59.79 59.27 59.22 58.93 58.67 58.43 58.02
46.57 48.40 49.99 51.88 53.07 55.42 58.57 61.24 61.49 60.86 60.61 61.19 61.36 61.30 60.79 60.16 59.84 59.28 59.11 58.88 58.47 58.19
43.94 46.01 48.22 50.75 53.11 54.24 55.87 58.29 60.00 60.57 60.16 60.19 60.36 60.97 60.79 60.39 60.04 59.09 58.96 59.07 58.46 58.00
42.02 43.68 44.70 45.95 50.17 53.35 54.60 55.89 57.35 58.70 58.89 59.22 59.47 59.91 59.95 60.02 59.61 59.15 58.60 58.69 58.52 58.13
39.49 41.17 41.17 42.81 45.63 47.44 49.71 53.17 55.28 55.87 56.64 57.38 58.40 59.08 59.44 59.57 59.49 59.18 59.01 58.98 58.51 58.40
37.31 37.56 37.19 38.80 41.22 42.85 45.10 47.88 51.15 52.48 54.01 55.82 57.02 57.73 58.33 58.46 58.71 58.73 58.70 58.72 58.58 58.09
35.62 35.37 34.81 35.32 36.36 38.09 39.90 42.24 44.70 47.08 48.89 50.23 51.50 52.32 49.43 54.93 57.27 57.39 57.37 56.88 56.89 56.92
33.00 32.09 32.20 33.70 34.27 35.28 36.77 39.40 40.46 41.53 42.82 43.96 46.54 43.56 41.78 42.17 47.19 49.38 50.76 53.84 53.08 52.51
29.37 27.15 28.93 31.31 33.01 34.13 35.59 37.32 38.36 39.32 40.28 40.47 41.71 41.94 41.42 40.00 41.87 44.78 47.28 47.17 45.85 42.37
23.25 23.67 25.66 27.70 30.60 33.08 34.96 35.75 36.82 38.10 39.31 39.60 39.36 40.53 40.49 39.26 40.86 42.19 42.05 42.17 41.75 40.56
20.50 21.68 22.50 24.17 27.65 31.19 33.42 34.67 35.71 36.72 36.75 36.10 36.66 38.70 39.39 39.08 36.56 36.07 36.73 36.26 37.09 38.37
19.20 19.42 19.62 21.68 24.96 29.45 33.02 33.46 34.79 34.83 35.50 34.47 34.25 36.95 38.39 38.24 34.38 34.13 34.10 33.54 34.38 33.35
16.85 17.06 18.17 20.62 24.56 27.78 31.99 32.99 33.76 34.04 34.45 33.58 33.55 34.33 36.98 38.32 34.83 34.39 33.98 33.23 32.80 32.99

GFSNIL_sfc_wetblb_141.txt.gz
Wetbulb
45.21 46.39 47.83 49.30 50.95 53.05 55.32 58.75 61.86 61.70 61.78 61.56 61.13 60.78 60.12 59.82 59.53 59.38 58.73 58.08 58.20 57.90
42.91 44.04 45.27 47.47 50.45 52.17 54.06 55.59 58.21 61.33 61.40 61.40 61.57 61.31 60.78 59.89 59.48 59.37 59.13 58.75 58.53 58.19
41.06 42.55 43.98 45.20 45.55 48.22 51.92 53.04 54.90 56.92 60.18 60.71 60.95 61.02 60.77 60.36 60.35 59.52 59.26 59.10 58.55 58.38
38.81 40.66 41.26 41.08 42.01 44.04 46.15 47.50 50.05 53.43 56.09 58.58 59.55 60.26 60.57 60.48 60.35 59.47 59.09 59.24 58.60 58.21
35.79 38.21 36.83 36.56 37.86 40.19 41.28 43.22 45.20 48.54 52.71 55.69 57.67 59.05 59.20 59.44 59.85 59.42 58.92 58.84 58.60 58.10
33.30 34.20 34.46 33.67 35.12 36.97 37.56 38.81 40.96 43.57 46.02 49.45 53.23 56.74 57.96 58.41 58.67 58.93 59.30 59.12 58.59 58.47
30.82 31.14 32.47 31.35 32.68 34.30 35.91 36.63 37.91 39.87 41.66 44.17 46.86 50.34 53.52 54.66 56.47 58.07 58.50 58.68 58.64 58.55
27.97 28.48 28.49 28.07 29.46 31.16 33.69 35.32 36.85 37.83 39.31 40.45 41.99 44.31 45.94 46.31 47.91 49.32 51.88 56.28 57.38 57.55
23.74 23.64 24.10 25.10 25.87 27.13 30.03 33.52 35.42 36.09 37.20 38.11 39.57 40.66 40.80 41.44 42.58 43.77 45.95 48.36 50.60 50.70
20.75 20.71 21.44 22.63 23.22 24.08 26.22 29.95 33.05 34.91 36.13 37.34 39.00 40.06 40.46 39.63 40.84 41.21 42.38 43.65 45.28 44.25
18.38 18.35 19.68 20.17 20.84 21.60 23.48 25.95 29.90 33.58 35.19 36.05 37.28 39.17 39.66 38.73 39.64 40.01 40.54 41.53 41.35 40.99
16.76 16.90 17.62 17.85 18.38 19.46 21.39 24.43 27.69 31.92 33.43 34.09 35.38 37.95 38.53 38.27 36.99 36.19 36.22 37.13 38.01 38.46
15.60 15.39 15.07 15.94 17.25 19.11 20.98 23.63 26.68 30.36 33.19 33.84 34.33 36.80 37.53 37.68 35.49 34.48 35.15 36.03 35.13 34.40
13.24 13.67 15.17 16.39 17.32 17.89 19.45 22.74 25.88 30.17 32.86 33.97 34.65 35.20 37.10 37.88 35.26 34.51 34.41 34.47 34.95 35.12

GFSNIL_sfc_wetblb_147.txt.gz
Wetbulb
38.45 40.05 39.16 39.07 38.72 39.75 40.79 42.15 44.29 44.16 46.21 47.64 49.50 53.37 56.89 59.48 59.83 59.88 59.43 59.06 58.97 58.15
35.31 36.13 36.93 36.65 36.12 36.46 37.86 38.69 39.27 40.52 41.76 43.84 45.94 49.21 52.29 55.32 56.93 59.48 59.43 58.73 58.75 58.52
33.38 32.79 33.81 35.12 32.94 33.04 34.59 35.82 36.42 37.73 39.26 40.59 42.78 44.78 46.79 49.06 52.41 55.10 57.61 58.99 58.84 58.58
30.76 29.61 30.07 30.23 30.27 30.64 31.85 32.49 33.30 35.25 37.20 38.51 39.80 41.47 42.24 44.42 47.40 48.66 51.56 54.14 56.13 57.36
27.95 26.99 26.56 26.66 27.43 28.60 28.78 29.95 30.57 32.69 34.34 36.38 37.74 39.51 40.01 40.23 42.45 44.45 43.10 45.35 47.84 49.99
24.64 24.21 23.95 24.55 25.51 26.17 26.49 27.22 28.68 29.51 30.54 32.50 35.76 37.39 38.66 39.56 40.13 39.95 40.37 41.65 42.94 44.51
22.63 22.37 22.65 23.54 23.97 24.30 24.90 25.49 25.95 26.81 27.98 29.66 32.83 35.59 37.66 37.53 37.11 37.74 38.98 40.25 40.82 41.28
21.30 21.58 21.99 22.04 22.36 22.89 23.85 24.05 24.38 24.90 25.84 27.62 31.06 34.03 34.48 35.60 36.53 36.63 37.08 38.62 39.49 40.41
20.25 20.32 20.50 20.64 20.50 21.35 21.67 21.98 22.75 23.10 24.15 25.41 28.75 31.40 32.94 33.51 33.44 34.11 35.25 37.00 38.10 39.14
18.42 18.07 18.87 18.94 19.45 19.58 19.75 20.93 21.05 22.15 24.27 25.82 27.61 30.96 32.54 33.06 32.50 32.67 33.83 35.85 37.52 38.04
16.37 16.35 17.16 17.82 18.34 18.60 19.75 19.89 21.13 23.58 25.83 27.11 28.74 31.76 32.64 32.19 32.12 32.56 33.34 34.52 35.61 36.76
14.98 14.60 15.55 16.27 17.22 18.57 18.98 20.27 22.53 24.69 25.56 24.39 25.25 28.88 30.02 31.08 30.27 30.81 31.60 33.47 35.05 36.21
13.74 13.89 14.94 16.21 16.39 17.82 19.49 21.23 23.38 24.00 23.34 23.43 23.62 26.08 28.02 28.73 28.28 28.35 30.37 32.17 33.57 34.62
12.33 13.87 15.74 15.80 16.23 18.08 20.05 20.62 20.18 20.74 20.60 21.67 22.07 22.79 25.87 27.77 25.82 25.40 27.22 30.58 32.08 32.88